This is the latest recevied weather packets stored in our database for station/object KC0RKM-13. If no packets are shown the sender has not sent any weather packets the latest 10 day(s).
| Time | Temp. | Humidity | Pressure | Rain* | Wind** | Luminosity | Snow |
|---|---|---|---|---|---|---|---|
| 1788529804 | 26.67° C | 71% | 1014 hPa | 0 mm | - | - | - |
| 1788529204 | 26.11° C | 72% | 1014.1 hPa | 0 mm | - | - | - |
| 1788528604 | 26.11° C | 73% | 1014.1 hPa | 0 mm | - | - | - |
| 1788528004 | 25.56° C | 74% | 1014 hPa | 0 mm | - | - | - |
| 1788527403 | 25° C | 75% | 1014.1 hPa | 0 mm | - | - | - |
| 1788526803 | 25° C | 76% | 1013.9 hPa | 0 mm | - | - | - |
| 1788526203 | 24.44° C | 77% | 1013.9 hPa | 0 mm | - | - | - |
| 1788525604 | 23.89° C | 78% | 1013.8 hPa | 0 mm | - | - | - |
| 1788525003 | 23.89° C | 79% | 1014 hPa | 0 mm | - | - | - |
| 1788524403 | 23.89° C | 79% | 1013.7 hPa | 0 mm | - | - | - |
| 1788523804 | 23.89° C | 79% | 1013.5 hPa | 0 mm | - | - | - |
| 1788523204 | 24.44° C | 77% | 1013.4 hPa | 0 mm | - | - | - |
| 1788522603 | 23.89° C | 78% | 1013.1 hPa | 0 mm | - | - | - |
| 1788522004 | 23.89° C | 78% | 1013.1 hPa | 0 mm | - | - | - |
| 1788521404 | 23.89° C | 78% | 1013.1 hPa | 0 mm | - | - | - |
| 1788520803 | 23.89° C | 78% | 1013 hPa | 0 mm | - | - | - |
| 1788520204 | 24.44° C | 78% | 1013 hPa | 0 mm | - | - | - |
| 1788519604 | 24.44° C | 77% | 1012.9 hPa | 0 mm | - | - | - |
| 1788519004 | 25° C | 76% | 1012.8 hPa | 0 mm | - | - | - |
| 1788518403 | 25° C | 76% | 1012.8 hPa | 0 mm | - | - | - |
| 1788517804 | 25° C | 75% | 1012.8 hPa | 0 mm | - | - | - |
| 1788517204 | 25.56° C | 74% | 1012.5 hPa | 0 mm | - | - | - |
| 1788516603 | 25.56° C | 73% | 1012.6 hPa | 0 mm | - | - | - |
| 1788516003 | 25.56° C | 73% | 1012.4 hPa | 0 mm | - | - | - |
| 1788515403 | 26.11° C | 72% | 1012.3 hPa | 0 mm | - | - | - |
* Rain latest hour (hover to see other rain measurements)
** Current wind speed in m/s (hover to see current wind gust speed)